Regional Weather Roundup
Issued by NWS

Home | Current Version | Previous Version | Text Only | Print | Product List | Glossary Off
Versions: 1 2 3 4 5 6 7 8 9 10 11 12 13 14 15 16 17 18 19 20 21 22 23 24 25 26 27 28 29 30 31 32 33 34 35 36 37 38 39 40 41 42 43 44 45 46 47 48 49 50

000
ASUS43 KLSX 010159
RWRMO

WEATHER SUMMARY FOR MISSOURI
NATIONAL WEATHER SERVICE SPRINGFIELD MO
900 PM CDT TUE JUN 30 2015

NOTE: "FAIR" INDICATES FEW OR NO CLOUDS BELOW 12,000 FEET WITH NO
       SIGNIFICANT WEATHER AND/OR OBSTRUCTIONS TO VISIBILITY.
       CURRENT SKY AND/OR WEATHER CONDITIONS ARE NOT AVAILABLE FOR
       CHILLICOTHE AND FARMINGTON.

MOZ001>031-035>038-043-044-053-054-010300-
...NORTHERN AND WESTERN MISSOURI...

CITY           SKY/WX    TMP DP  RH WIND       PRES   REMARKS
KANSAS CTY INT CLOUDY    81  65  58 SE9       29.88F
KANSAS C DTWN  CLOUDY    82  66  58 E6        29.87R
LEE`S SUMMIT   MOCLDY    78  69  73 E5        29.90R
ST JOSEPH      CLOUDY    79  64  60 SE7       29.87S
CHILLICOTHE      N/A     76  72  87 E6        29.89F
KIRKSVILLE     CLOUDY    72  69  90 CALM      29.90F

$$
MOZ066>068-077>081-088>096-101>105-010300-
...SOUTHWEST MISSOURI...

CITY           SKY/WX    TMP DP  RH WIND       PRES   REMARKS
SPRINGFIELD    CLEAR     79  68  69 SE3       29.93S
JOPLIN         PTCLDY    82  72  71 SE7       29.91R

$$
MOZ032>034-039>042-045>050-055>058-069>072-010300-
...CENTRAL MISSOURI...

CITY           SKY/WX    TMP DP  RH WIND       PRES   REMARKS
COLUMBIA       MOCLDY    77  71  82 CALM      29.90R
JEFFERSON CITY MOCLDY    79  71  76 CALM      29.88S
ROLLA          MOCLDY    72  70  93 SW7       29.91R
SEDALIA        MOCLDY    77  70  79 SE3       29.91S
OSAGE BEACH    PTCLDY    73  70  88 CALM      29.92R

$$
MOZ051-052-059>065-010300-
...EAST CENTRAL MISSOURI...

CITY           SKY/WX    TMP DP  RH WIND       PRES   REMARKS
ST LOUIS INTL  MOCLDY    77  68  73 NW3       29.88R
SPIRIT OF STL  MOCLDY    75  72  90 CALM      29.87R
ST CHARLES     PTCLDY    77  70  79 NW3       29.86R

$$
MOZ072>076-082>087-097>100-106>115-010300-
...SOUTH CENTRAL AND SOUTHEAST MISSOURI...

CITY           SKY/WX    TMP DP  RH WIND       PRES   REMARKS
CAPE GIRARDEAU PTCLDY    76  71  85 SW6       29.89R
FARMINGTON     MOCLDY    73  70  88 S5        29.95R
POPLAR BLUFF   PTCLDY    80  71  74 SW3       29.90R
WEST PLAINS    PTCLDY    75  69  81 SW3       29.96R

$$



USA.gov is the U.S. government's official web portal to all federal, state and local government web resources and services.